Wind_Speed
15 16 16 16 16 15 15 15 15 15 14 12 10 7 8 6 2 2 4 9 16 22 22 22 16 15 15 18 18 18 13 6 7 10 11 13 12 12 12 14 13 9 5 7 12
15 15 16 17 17 16 15 15 14 14 16 15 13 11 8 10 6 2 1 10 16 21 23 24 21 19 17 21 19 16 13 5 10 10 11 11 11 11 11 11 11 10 9 6 11
14 16 17 16 16 17 16 16 16 14 12 16 17 15 12 13 11 5 3 8 15 23 26 23 25 20 22 22 19 15 14 7 9 10 9 9 9 9 9 9 11 8 12 11 11
17 17 17 16 16 16 16 16 16 16 15 12 16 18 18 15 16 7 6 6 10 19 19 23 23 23 22 24 21 15 12 12 10 10 11 9 8 9 8 7 10 10 5 13 11
18 18 18 18 17 16 16 16 16 17 17 14 13 15 21 21 19 13 11 11 12 15 20 26 23 24 20 22 21 16 12 13 12 12 13 11 10 8 8 6 8 11 9 9 13
19 19 18 18 17 17 17 16 16 16 16 17 15 14 16 24 21 20 16 13 12 14 21 25 26 24 25 25 23 18 15 15 14 13 13 13 11 11 8 7 7 10 10 9 11
20 19 18 17 18 19 19 19 17 15 15 17 18 16 18 15 24 25 23 17 16 18 17 25 32 29 22 24 25 19 14 16 17 17 15 16 12 10 10 10 7 7 8 8 10
19 19 19 19 20 22 23 22 19 17 18 19 18 20 21 17 15 26 27 24 21 20 21 24 33 34 29 25 22 19 15 12 19 20 17 17 8 10 9 10 10 7 6 7 8
21 20 20 21 22 21 22 22 22 21 22 22 20 19 22 21 19 19 28 29 27 25 25 23 27 29 31 26 25 22 15 15 19 22 20 16 12 10 10 8 8 10 8 6 8
23 25 26 22 24 23 24 24 24 24 24 24 22 22 20 21 21 19 22 31 33 31 30 26 25 24 26 29 25 22 20 18 19 20 20 17 15 12 11 11 7 9 10 9 5
25 26 27 24 25 26 26 25 25 26 25 25 24 22 23 22 19 22 23 26 34 36 35 31 26 23 21 23 22 20 20 18 23 22 21 19 16 13 12 11 10 7 7 10 9
28 28 30 28 27 28 28 29 27 27 23 27 27 22 24 23 22 23 23 26 30 36 39 39 30 27 29 25 24 25 25 22 21 27 26 21 20 19 14 12 11 10 6 6 6
34 33 34 34 33 32 31 31 31 31 29 26 29 30 27 27 24 24 23 23 26 35 42 41 34 34 35 32 32 30 28 25 24 29 29 26 25 22 19 17 14 12 9 7 7
40 36 37 40 38 38 36 34 34 33 34 28 28 31 27 27 27 25 22 23 26 29 38 45 44 42 37 35 33 35 30 27 28 32 30 30 21 21 20 18 16 13 10 8 8
45 45 42 40 41 41 39 39 37 35 37 34 31 28 28 27 26 25 23 22 23 28 36 43 46 43 44 37 36 33 30 37 30 32 29 30 29 23 27 22 15 12 11 9 7
48 48 47 48 49 45 44 41 40 39 40 35 33 31 29 29 29 28 27 24 24 27 33 38 46 49 46 44 40 36 35 37 37 33 37 32 32 25 22 14 17 18 18 15 12
49 51 53 52 52 50 48 47 44 45 41 39 36 34 35 34 34 32 31 29 27 26 28 37 44 48 52 52 49 45 42 36 38 39 35 33 37 32 23 21 21 19 22 20 21
51 53 54 54 52 53 53 50 50 48 43 45 42 41 38 38 38 38 34 33 29 28 32 34 43 44 54 57 53 49 49 41 38 35 33 34 36 30 27 28 24 24 26 22 25
55 55 56 54 53 53 55 56 51 50 50 49 47 44 45 45 41 38 39 36 34 30 30 34 38 44 53 58 58 56 59 44 34 33 33 29 36 33 27 29 27 20 26 26 27
57 57 60 60 58 58 61 55 54 52 52 50 50 49 47 48 48 41 39 38 36 30 28 33 36 41 50 57 59 64 54 54 48 44 40 35 29 23 27 25 24 23 23 24 24
67 67 66 68 67 66 65 62 59 61 54 53 51 52 52 47 49 46 40 41 38 37 30 30 34 34 46 55 59 62 64 62 49 47 43 40 38 29 26 30 31 22 26 25 24
74 71 71 73 73 74 73 69 68 64 62 57 56 55 55 52 48 45 45 41 41 37 35 29 32 35 40 48 53 50 56 57 59 60 49 46 38 26 30 32 29 27 21 27 29
70 73 75 74 72 71 70 71 70 67 64 59 58 58 54 55 49 48 47 43 40 36 36 30 33 30 37 38 49 55 56 52 57 50 52 48 42 33 26 31 29 22 24 22 21
62 66 72 74 72 70 69 71 71 68 66 60 58 59 57 56 52 48 48 42 40 39 40 38 32 36 34 34 36 52 63 62 53 62 60 58 41 35 34 45 33 28 25 24 21
60 63 65 64 66 67 67 69 69 71 73 64 63 60 59 57 52 48 48 47 42 42 40 40 38 31 34 36 30 38 42 57 69 67 60 52 51 48 43 43 36 33 29 27 24
56 57 56 54 55 61 61 63 68 70 71 65 62 61 61 60 53 49 51 49 46 44 45 42 38 36 32 31 33 36 40 44 47 71 68 61 56 39 43 51 47 34 31 28 27
45 50 52 51 50 52 55 59 64 70 68 63 68 67 67 64 62 56 54 51 54 53 49 46 40 41 30 23 30 37 39 40 47 50 58 65 68 67 55 49 42 37 32 27 27
Wind_Direction
332 320 312 309 312 316 316 305 288 271 265 261 264 273 274 291 284 175 197 183 180 178 173 169 175 168 158 162 140 130 106 125 118 114 117 118 117 120 124 123 122 135 181 201 161
344 341 329 313 306 304 305 309 311 294 274 261 255 251 251 261 268 264 114 170 182 178 182 181 182 175 159 162 150 140 132 179 134 124 129 126 122 120 121 125 124 133 139 176 160
322 326 335 331 321 307 304 301 301 304 301 270 257 249 240 241 258 238 175 184 191 187 186 195 182 178 166 170 162 146 141 187 144 137 126 116 123 122 124 122 113 110 144 149 151
314 315 317 325 334 333 313 300 300 297 296 303 269 252 245 236 242 240 195 191 210 198 192 187 185 181 173 172 177 161 149 162 164 167 140 131 137 135 130 132 116 108 119 145 155
313 312 307 308 316 323 332 322 299 295 297 292 291 271 250 241 249 240 221 205 203 204 204 188 192 182 181 175 178 171 165 168 173 172 152 141 141 141 138 142 132 119 119 146 149
316 313 303 302 304 309 317 322 318 303 293 295 292 279 269 251 243 236 232 214 212 205 204 200 192 192 198 185 181 182 176 177 168 161 152 141 136 133 128 139 144 125 125 139 144
306 306 301 297 298 298 305 311 312 310 306 296 294 287 271 276 245 238 237 220 212 209 205 199 199 201 199 195 187 192 184 186 167 156 154 142 129 135 126 114 120 124 130 131 141
300 302 301 297 295 292 296 302 300 296 296 300 299 294 282 270 261 243 236 225 219 215 208 204 207 201 199 204 203 201 203 199 184 164 159 157 136 140 125 119 118 123 137 134 148
291 293 294 299 299 296 295 295 291 288 292 293 293 288 289 281 265 259 241 230 222 219 214 214 211 208 206 204 206 211 207 207 198 177 162 166 155 159 140 115 136 132 140 142 154
292 290 288 292 294 293 294 292 288 287 286 285 285 286 283 285 279 265 254 238 226 220 218 216 215 214 207 205 206 206 211 216 195 180 169 173 163 175 162 143 144 149 145 153 154
289 287 284 283 286 288 288 292 292 288 282 279 279 284 281 280 283 276 257 247 235 226 222 223 222 214 207 200 195 207 214 207 187 175 166 164 165 176 175 158 148 144 171 162 161
291 288 284 281 281 284 283 284 287 286 281 275 275 277 277 282 277 273 269 254 242 233 229 222 222 218 213 207 194 197 202 202 205 180 178 184 184 184 176 170 161 153 146 189 191
289 289 287 283 282 282 284 282 282 283 281 276 274 270 271 276 277 268 270 262 251 236 233 235 226 222 216 205 197 192 201 202 209 198 194 195 197 194 186 176 166 167 179 187 206
287 284 282 283 281 280 283 282 279 278 277 272 273 271 267 264 271 269 266 260 254 249 238 234 225 223 222 215 199 194 196 204 212 211 210 207 217 218 204 199 188 175 178 194 219
284 284 281 280 279 278 277 278 277 275 274 274 271 265 264 261 261 268 263 262 261 250 245 241 232 227 227 223 210 187 198 209 206 219 213 228 223 215 220 203 200 193 185 188 204
283 278 275 276 276 275 274 270 270 270 269 268 267 265 262 262 259 259 262 262 257 255 249 241 235 227 227 224 218 202 204 215 214 220 225 221 238 223 229 220 207 211 209 214 213
282 279 275 270 270 268 267 266 263 261 268 266 262 261 263 262 260 255 256 254 258 259 257 247 246 230 226 222 218 212 211 211 214 219 224 232 230 225 222 219 221 225 227 226 233
279 275 272 269 267 265 265 261 260 262 263 262 262 262 260 256 257 258 252 253 251 256 254 245 243 239 230 226 223 218 217 212 218 221 231 227 230 236 221 210 210 215 220 227 246
279 273 270 265 264 263 260 259 261 262 259 258 258 254 256 256 252 253 256 254 248 247 247 251 245 239 233 227 219 221 223 219 224 233 232 237 252 243 216 205 208 213 223 227 247
276 274 268 264 263 261 260 257 258 257 259 254 251 250 249 253 251 249 252 252 251 244 246 248 247 240 236 229 224 221 228 222 222 225 234 231 227 234 209 209 205 215 217 234 249
276 270 263 260 259 259 260 260 257 256 249 248 247 247 246 245 249 249 244 248 247 246 236 240 246 241 235 233 229 221 221 226 228 230 229 235 237 241 229 202 205 217 225 228 231
277 272 266 258 256 255 256 257 255 251 249 245 243 242 245 244 243 243 243 240 244 241 239 238 247 241 245 236 236 224 227 225 227 227 233 239 241 246 242 215 216 221 228 232 240
275 268 262 257 253 252 250 248 247 245 242 241 242 241 242 244 241 241 243 239 240 237 235 228 232 239 235 232 231 229 223 227 228 229 232 237 237 216 241 237 226 228 232 240 248
262 258 254 250 245 244 243 242 241 238 236 235 236 236 238 239 239 236 238 234 234 236 231 231 226 236 237 247 240 240 234 226 226 231 233 232 235 235 239 242 232 238 246 252 228
258 254 251 249 245 240 236 235 232 230 232 231 231 232 236 239 238 233 230 229 226 231 233 231 231 228 240 232 231 231 234 236 231 234 230 234 237 235 236 242 244 242 243 241 250
260 254 252 249 247 240 232 225 223 222 223 224 229 229 233 235 235 227 225 221 218 220 227 229 231 236 237 239 239 239 237 230 236 235 239 236 235 237 245 248 246 241 244 250 248
267 260 253 248 246 247 236 231 227 223 219 219 221 222 224 227 227 226 224 217 212 215 222 224 225 236 239 247 251 241 234 239 239 238 239 239 244 239 240 248 245 241 246 229 240
Height
5893 5892 5891 5890 5889 5888 5887 5887 5887 5888 5888 5889 5890 5891 5891 5891 5892 5892 5891 5892 5893 5896 5899 5901 5903 5905 5906 5908 5908 5909 5914 5916 5914 5912 5912 5911 5910 5910 5909 5908 5907 5908 5909 5910 5910
5892 5891 5890 5888 5887 5887 5886 5884 5884 5884 5885 5886 5887 5888 5888 5889 5889 5891 5891 5891 5892 5894 5898 5899 5901 5904 5906 5908 5909 5909 5916 5917 5912 5911 5912 5911 5911 5910 5910 5909 5908 5908 5909 5910 5910
5890 5889 5888 5887 5885 5884 5884 5883 5881 5881 5881 5882 5883 5884 5885 5885 5887 5888 5889 5890 5890 5891 5893 5897 5900 5903 5906 5909 5910 5910 5913 5914 5912 5911 5911 5911 5910 5910 5910 5910 5909 5909 5908 5909 5910
5887 5886 5885 5884 5884 5883 5882 5881 5880 5878 5878 5878 5879 5880 5881 5883 5884 5886 5888 5888 5889 5891 5892 5897 5899 5902 5905 5908 5910 5911 5911 5911 5912 5912 5910 5911 5911 5910 5910 5910 5909 5909 5909 5907 5909
5884 5883 5882 5881 5881 5880 5880 5879 5878 5876 5875 5875 5875 5876 5877 5879 5880 5883 5885 5886 5887 5889 5892 5895 5898 5901 5904 5907 5909 5910 5910 5911 5912 5912 5911 5911 5911 5911 5910 5910 5909 5908 5909 5909 5908
5881 5880 5878 5878 5877 5877 5877 5876 5875 5874 5873 5872 5872 5872 5872 5873 5877 5878 5881 5884 5885 5886 5889 5892 5896 5899 5900 5903 5906 5908 5909 5910 5911 5912 5912 5911 5912 5911 5911 5910 5910 5908 5909 5909 5909
5877 5876 5875 5875 5874 5873 5873 5873 5872 5871 5871 5870 5869 5869 5868 5870 5871 5873 5876 5880 5882 5883 5885 5890 5891 5894 5900 5901 5903 5907 5908 5909 5910 5911 5911 5911 5912 5912 5911 5911 5910 5910 5910 5910 5911
5873 5871 5870 5870 5870 5869 5869 5869 5868 5868 5868 5867 5866 5865 5864 5866 5867 5868 5870 5875 5878 5880 5881 5882 5886 5891 5894 5898 5902 5903 5907 5910 5910 5910 5911 5911 5915 5913 5912 5910 5910 5911 5911 5912 5912
5868 5867 5866 5866 5865 5863 5863 5864 5864 5864 5863 5863 5863 5861 5861 5861 5863 5864 5866 5868 5872 5875 5878 5879 5881 5886 5891 5895 5899 5902 5906 5909 5909 5909 5909 5911 5912 5912 5911 5910 5910 5910 5911 5912 5913
5863 5862 5860 5860 5859 5859 5858 5858 5858 5858 5858 5858 5858 5858 5857 5858 5858 5860 5860 5863 5866 5869 5873 5876 5878 5882 5886 5889 5894 5900 5903 5908 5909 5908 5908 5909 5910 5911 5909 5909 5910 5910 5911 5912 5914
5857 5855 5854 5854 5853 5853 5853 5853 5854 5853 5852 5852 5853 5852 5851 5852 5854 5853 5855 5857 5860 5864 5867 5872 5875 5876 5883 5887 5892 5899 5902 5906 5908 5907 5907 5908 5909 5910 5909 5908 5908 5910 5911 5912 5913
5851 5849 5847 5847 5846 5846 5846 5845 5846 5846 5847 5845 5846 5847 5845 5846 5847 5848 5850 5851 5854 5859 5861 5864 5870 5876 5879 5883 5888 5892 5897 5903 5907 5903 5905 5907 5908 5908 5908 5908 5907 5908 5910 5911 5913
5842 5842 5840 5839 5839 5839 5839 5839 5837 5837 5839 5839 5838 5840 5841 5841 5842 5842 5844 5845 5848 5850 5854 5859 5868 5870 5872 5876 5881 5886 5892 5898 5904 5901 5901 5903 5904 5906 5906 5906 5906 5907 5908 5910 5911
5832 5833 5832 5831 5831 5830 5831 5830 5829 5829 5830 5833 5831 5830 5832 5834 5834 5837 5837 5839 5840 5844 5847 5850 5857 5862 5866 5871 5876 5880 5888 5893 5897 5897 5898 5900 5906 5906 5905 5904 5905 5905 5907 5908 5909
5822 5821 5822 5820 5819 5820 5822 5821 5820 5821 5821 5822 5823 5824 5825 5827 5828 5829 5831 5831 5833 5836 5838 5844 5849 5857 5859 5866 5872 5878 5885 5887 5889 5892 5896 5897 5898 5903 5901 5901 5903 5904 5905 5906 5906
5808 5807 5808 5808 5808 5808 5808 5809 5811 5812 5809 5812 5814 5816 5817 5818 5819 5822 5823 5825 5825 5827 5830 5835 5840 5846 5854 5861 5865 5873 5873 5879 5882 5885 5886 5892 5892 5896 5897 5900 5901 5902 5901 5902 5902
5793 5793 5793 5792 5793 5793 5793 5796 5798 5797 5800 5801 5804 5805 5808 5810 5811 5812 5814 5816 5818 5820 5822 5825 5826 5837 5844 5850 5857 5862 5867 5870 5873 5874 5878 5886 5886 5888 5894 5897 5897 5898 5898 5899 5899
5774 5775 5775 5777 5776 5777 5779 5780 5782 5785 5791 5789 5792 5796 5796 5799 5801 5802 5805 5806 5809 5811 5811 5814 5817 5826 5831 5837 5848 5853 5857 5862 5866 5871 5875 5876 5874 5881 5888 5889 5890 5892 5893 5894 5895
5757 5756 5758 5758 5758 5759 5760 5763 5768 5773 5775 5776 5780 5783 5785 5785 5790 5792 5794 5797 5798 5801 5804 5804 5809 5814 5819 5828 5837 5845 5844 5858 5866 5869 5870 5873 5870 5875 5879 5882 5884 5887 5890 5891 5892
5738 5738 5738 5739 5739 5740 5740 5747 5751 5755 5759 5761 5765 5768 5772 5774 5777 5780 5782 5787 5790 5791 5794 5796 5800 5804 5809 5815 5825 5830 5846 5847 5849 5855 5859 5864 5867 5870 5874 5878 5881 5883 5885 5888 5888
5712 5714 5715 5714 5715 5717 5721 5730 5733 5736 5740 5743 5749 5753 5757 5760 5764 5767 5773 5775 5779 5781 5783 5787 5789 5796 5799 5801 5812 5819 5825 5831 5844 5847 5850 5856 5858 5866 5867 5870 5873 5877 5880 5883 5884
5681 5684 5687 5685 5688 5692 5700 5707 5714 5718 5721 5725 5729 5736 5741 5746 5750 5755 5760 5763 5766 5771 5773 5777 5781 5785 5790 5798 5801 5811 5815 5823 5827 5833 5838 5845 5852 5862 5861 5864 5868 5871 5876 5878 5878
5646 5651 5651 5653 5659 5663 5672 5679 5685 5695 5699 5705 5713 5719 5726 5731 5736 5740 5745 5752 5755 5760 5765 5768 5770 5775 5781 5787 5788 5793 5803 5810 5819 5828 5827 5833 5841 5851 5852 5855 5860 5864 5867 5870 5872
5614 5618 5619 5621 5626 5633 5639 5649 5660 5670 5679 5685 5693 5701 5707 5714 5720 5728 5732 5741 5744 5749 5752 5757 5762 5765 5772 5778 5786 5785 5789 5797 5807 5808 5817 5818 5836 5840 5844 5845 5853 5857 5860 5862 5865
5584 5586 5592 5595 5598 5602 5610 5623 5631 5641 5652 5664 5672 5682 5690 5698 5706 5713 5720 5725 5733 5738 5743 5748 5753 5759 5760 5768 5774 5777 5780 5783 5789 5795 5802 5816 5821 5830 5833 5838 5843 5849 5852 5854 5858
5559 5563 5568 5574 5575 5580 5584 5597 5603 5614 5622 5642 5653 5665 5671 5680 5691 5699 5704 5713 5720 5728 5734 5738 5743 5748 5753 5758 5763 5766 5770 5774 5778 5784 5790 5801 5804 5819 5826 5827 5832 5839 5843 5846 5849
5539 5542 5546 5558 5562 5565 5572 5577 5583 5585 5603 5616 5623 5637 5649 5660 5668 5678 5687 5700 5705 5712 5721 5729 5735 5739 5745 5753 5753 5754 5760 5765 5767 5773 5780 5783 5793 5808 5812 5817 5822 5829 5834 5838 5842